STARLINK-33807, 63518

Orbit data source: Space-Track

STARLINK-33807, 63518 is a payload satellite owned by SpaceX/Seattle (US) in LEO that was launched on Mon, 07 Apr 2025 UTC via an FALCON 9 launch vehicle from the Air Force Western Test Range (AFWTR). Payload-class satellites include a variety of spacecraft equipped with specific instruments for various scientific and technological missions. These include communications satellites like Starlink; space stations such as the ISS; scientific satellites like the Hubble; Earth observation satellites from companies like Planet Labs, Umbra, and HawkEye 360; GPS; miniature CubeSats for education and research; and military/defense satellites.

Loading next visibility...
Identifier
63518, 2025-071AB
Orbit
LEO
Last TLE update
11 hours ago
Origin
Manufacturer
SpaceX/Seattle
Mission
Operational Commercial Communications
Bus & Motor
STARLINK V2MO, Unknown motor
Mass
575 kg wet, ~530 kg dry
Launch date (UTC)
2025-04-07 (3 months ago)
Launch vehicle
FALCON 9
Launch site
Air Force Western Test Range (AFWTR)
Object type
Payload
Rocket body
Debris
Shape & HBR
Box + 1 Pan, 29 m
Radar Cross Section
41.120 m², Large (>1 m²)

Expand to show TLE details & history

TLE from 11 hours ago
0 STARLINK-33807
1 63518U 25071AB  25182.45552690  .00015828  00000-0  54471-3 0  9990
2 63518  53.1588 229.0577 0001520  61.2681 298.8473 15.30239932 14271
Epoch: 2025-07-01T10:55Z
TLE epoch observation values (Epoch: 2025-07-01T10:55:57.524Z)
Latitude
0.00005°
Longitude
145.31732°
Altitude
475.493 km
Speed
7.63 km/s
True Right ascension
15h 16m 13s
True Declination
0° 00' 00"
Sunlit
Object was in full shadow at epoch
Visualization orbit readout
Latitude
12.71939°
Longitude
152.86118°
Altitude
474.475 km
Speed
7.631 km/s
Apparent Right ascension
18h 08m 39s
Apparent Declination
-16° 59' 04"
Sunlit
Object is in full shadow
Visualization observer readout
Local Sidereal Time
09:38:47
Azimuth
78.878° E
Elevation
-39.318°
Doppler factor
1
Orbital elements
Apogee altitude
476.394 km
Perigee altitude
474.311 km
Semi-major axis
6,853.489 km
Eccentricity
0.00015
Inclination
53.1588°
RAAN
229.0577°
Arg. of periapsis
61.2681°
True anomaly
Unknown
Mean anomaly
298.8473°
Eccentric anomaly
Unknown
Mean motion
3.82539 °/min
Orbital period
94.11 mins
BSTAR
0.00054471
Loading maneuver chart data...
Loading SW <> Apogee altitude chart data...
Loading historical data...
Loading historical data...
Loading historical data...
Loading historical data...
Loading historical data...
Loading historical data...
Loading historical data...

STARLINK-33807 Visibility forecast

Observer location: undefined°, undefined°

Span
Click to sort rows by Start time (UTC) header in descending order
Start Az.
Max El. time (UTC)
Max El. Az.
Max El.
End time (UTC)
End Az.
5 mins2025-07-02 05:56:27.159Z233.199° WSW2025-07-02 05:58:27.159Z274.827° WNW44.597°2025-07-02 06:01:27.159Z48.108° ENE
4 mins2025-07-02 07:35:27.159Z309.056° NW2025-07-02 07:37:27.159Z349.228° N16.482°2025-07-02 07:39:27.159Z22.252° NNE
4 mins2025-07-02 10:53:27.159Z347.201° N2025-07-02 10:55:27.159Z25.553° NE16.61°2025-07-02 10:57:27.159Z60.915° ENE
5 mins2025-07-02 12:31:27.159Z313.669° NW2025-07-02 12:33:27.159Z353.126° N44.281°2025-07-02 12:36:27.159Z126.74° SE
|